User: anonymous   Login
Location: Goheenville
(40.9070°N, 79.3720°W)
Time: 01:20:14
(UTC-04:00)
Language:

Cosmos 1633 - Orbit

View from above orbital plane
View from above orbital plane
View from above satellite
View from above satellite

Ground track
Ground track

The orbit data is extracted from the following two-line orbital elements,

1 15592U 85020A   17086.93799537 +.00002658 +00000-0 +95159-4 0  9995
2 15592 082.5395 040.6982 0015483 102.7970 257.5000 15.28200213751604
Epoch (UTC): 27 March 2017 22:30:42
Eccentricity: 0.0015483
inclination: 82.5395°
perigee height: 470 km
apogee height: 492 km
right ascension of ascending node: 40.6982°
argument of perigee: 102.7970°
revolutions per day: 15.28200213
mean anomaly at epoch: 257.5000°
orbit number at epoch: 75160

The dashed part of the orbit path shows where the satellite is in the earth's shadow,  

DLR